Location: Newark
(13.8117°N, 3.6025°W)
Time: 12:03:23
(UTC+00:00)

N. Korean satellite - Pass Details

Date: 01 September 2019
Orbit: 455 x 508 km, 97.2° (Epoch: 15 September)

Event Time Altitude Azimuth Distance (km) Brightness Sun altitude
Rises 05:18:41 0° 33° (NNE) 2,481 10.9 -11.4°
Reaches altitude 10° 05:21:08 10° 51° (NE) 1,599 10.3 -10.8°
Maximum altitude 05:23:40 19° 99° (E) 1,137 9.5 -10.2°
Drops below altitude 10° 05:26:10 10° 146° (SSE) 1,588 9.5 -9.6°
Sets 05:28:36 0° 165° (SSE) 2,457 10.2 -9.0°
